Key West NAF, FL

4:22 PM EDT on May 24, 2017 (GMT -0400)
Key West Naval Air Station

Weather History for KNQX - August, 2014

Change the Weather History Date:

Monday, August 25, 2014

  Actual Average Record
Temperature  
Mean Temperature 88 °F -  
Max Temperature 93 °F 89 °F 93 °F (1952)
Min Temperature 82 °F 79 °F 1 °F (2016)
Cooling Degree Days 22    
Growing Degree Days 38 (Base 50)    
Moisture  
Dew Point 77 °F    
Average Humidity 72    
Maximum Humidity 85    
Minimum Humidity 58    
Precipitation  
Precipitation 0.01 in - - ()
Sea Level Pressure  
Sea Level Pressure 29.76 in    
Wind  
Wind Speed 6 mph (North)    
Max Wind Speed 15 mph    
Max Gust Speed 20 mph    
Visibility 10 miles    
Events Rain    
Averages and records for this station are not official NWS values.
T = Trace of Precipitation, MM = Missing Value Source: NWS Daily Summary

Daily Weather History Graph

Daily Weather History Graph

Search for Another Location

Airport or City:

Trip Planner

Search our weather history database for the weather conditions in past years. The results will help you decide how hot, cold, wet, or windy it might be!

Date:

Astronomy

Aug. 25, 2014 Rise Set
Actual Time 7:05 AM EDT 7:51 PM EDT
Civil Twilight 6:41 AM EDT 8:15 PM EDT
Nautical Twilight 6:14 AM EDT 8:42 PM EDT
Astronomical Twilight 5:46 AM EDT 9:10 PM EDT
Moon 7:04 AM EDT (8/25) 7:49 PM EDT (8/25)
Length of Visible Light 13h 33m
Length of Day
12h 46m
New Moon, 0% of the Moon is Illuminated
Aug 25
New Moon
Sep 2
First Quarter
Sep 8
Full
Sep 15
Last Quarter
Sep 24
New

Hourly Weather History & Observations

Time (EDT) Temp. Heat Index Dew Point Humidity Pressure Visibility Wind Dir Wind Speed Gust Speed Precip Events Conditions
12:53 AM 82.9 °F 90.2 °F 75.0 °F 77% 29.80 in 10.0 mi Calm Calm - N/A   Partly Cloudy
1:53 AM 82.0 °F 89.4 °F 75.9 °F 82% 29.78 in 10.0 mi Calm Calm - N/A   Clear
2:53 AM 84.0 °F 93.7 °F 77.0 °F 79% 29.77 in 10.0 mi ENE 3.5 mph - N/A   Clear
3:53 AM 82.9 °F 91.8 °F 77.0 °F 82% 29.76 in 10.0 mi North 3.5 mph - N/A   Clear
4:25 AM - - - N/A% - - North - - N/A   Unknown
4:53 AM 82.0 °F 90.2 °F 77.0 °F 85% 29.75 in 10.0 mi East 3.5 mph - N/A   Clear
5:54 AM 82.9 °F 91.8 °F 77.0 °F 82% 29.75 in 10.0 mi Calm Calm - N/A   Clear
6:53 AM 82.9 °F 91.8 °F 77.0 °F 82% 29.76 in 10.0 mi Calm Calm - N/A   Clear
7:15 AM - - - N/A% - - North - - N/A   Unknown
7:53 AM 84.0 °F 93.7 °F 77.0 °F 79% 29.78 in 10.0 mi North 3.5 mph - N/A   Clear
8:53 AM 88.0 °F 98.5 °F 75.9 °F 67% 29.78 in 10.0 mi NNW 4.6 mph - N/A   Partly Cloudy
9:53 AM 90.0 °F 102.5 °F 77.0 °F 65% 29.78 in 10.0 mi NNW 8.1 mph - N/A   Partly Cloudy
10:53 AM 91.0 °F 104.2 °F 77.0 °F 63% 29.79 in 10.0 mi North 10.4 mph - N/A   Scattered Clouds
11:53 AM 91.9 °F 105.9 °F 77.0 °F 62% 29.79 in 10.0 mi North 9.2 mph - N/A   Scattered Clouds
12:53 PM 91.9 °F 107.3 °F 78.1 °F 64% 29.78 in 10.0 mi North 12.7 mph - N/A   Scattered Clouds
1:53 PM 91.9 °F 107.3 °F 78.1 °F 64% 29.77 in 10.0 mi North 10.4 mph - N/A   Scattered Clouds
2:53 PM 93.0 °F 106.7 °F 77.0 °F 59% 29.75 in 10.0 mi NNW 12.7 mph - N/A   Scattered Clouds
3:53 PM 91.9 °F 103.9 °F 75.9 °F 59% 29.73 in 10.0 mi NNW 12.7 mph - N/A   Scattered Clouds
4:53 PM 91.9 °F 103.2 °F 75.0 °F 58% 29.73 in 10.0 mi NNW 12.7 mph - N/A   Scattered Clouds
5:53 PM 91.0 °F 104.2 °F 77.0 °F 63% 29.73 in 10.0 mi North 15.0 mph - N/A   Scattered Clouds
6:53 PM 87.1 °F 97.3 °F 75.9 °F 69% 29.75 in 10.0 mi North 11.5 mph - N/A   Mostly Cloudy
7:16 PM 82.9 °F 89.4 °F 73.9 °F 74% 29.76 in 10.0 mi North 9.2 mph - 0.01 in Rain Light Rain
7:30 PM 84.9 °F 95.3 °F 77.0 °F 77% 29.76 in 10.0 mi North 12.7 mph 19.6 mph 0.01 in   Mostly Cloudy
7:53 PM 84.9 °F 96.6 °F 78.1 °F 80% 29.75 in 10.0 mi North 13.8 mph - 0.01 in   Mostly Cloudy
8:53 PM 84.9 °F 95.3 °F 77.0 °F 77% 29.75 in 10.0 mi NNE 9.2 mph - N/A   Mostly Cloudy
9:53 PM 84.9 °F 96.6 °F 78.1 °F 80% 29.76 in 10.0 mi NE 10.4 mph - N/A   Mostly Cloudy
10:53 PM 84.0 °F 91.9 °F 75.0 °F 74% 29.78 in 10.0 mi NE 10.4 mph - N/A   Clear
11:53 PM 84.0 °F 93.7 °F 77.0 °F 79% 29.78 in 10.0 mi NE 9.2 mph - N/A   Clear